Terug naar catalogus

COSMOS 1275 DEB

ActiefPO
NORAD 17623·DEBRIS·🇷🇺 Russia

Gelanceerd Jun 4, 1981 vanaf Plesetsk Cosmodrome

Loading…

Volgende Passages (komende 24 uur)

TLE

VersSource: Space-Track

Epoch: Sep 14, 2026, 23:31 UTC

1 17623U 81053KS  26257.97999837  .00001043  00000-0  71058-3 0  9991
2 17623  82.8043 157.3835 0052567 260.9929 114.9260 13.98467398 91999

Volg COSMOS 1275 DEB in realtime met AllMySat

Download on the App Store